Weather History for Columbia, MO

Change the Weather History Date:

Monday, November 12, 2012

  Actual Average Record
Temperature  
Mean Temperature 35 °F 46 °F  
Max Temperature 44 °F 56 °F 78 °F (1971)
Min Temperature 26 °F 37 °F 9 °F (1911)
Degree Days  
Heating Degree Days 30 19  
Month to date heating degree days 198 197  
Since 1 July heating degree days 595 562  
Cooling Degree Days 0 0  
Month to date cooling degree days 3 0  
Year to date cooling degree days 1896 1247  
Moisture  
Dew Point 21 °F    
Average Humidity 61    
Maximum Humidity 81    
Minimum Humidity 40    
Precipitation  
Precipitation 0.00 in 0.11 in 1.06 in (1992)
Month to date precipitation 0.89 1.27  
Year to date precipitation 29.04 38.20  
Snow  
Snow 0.00 in 0.10 in 0.10 in (1983)
Month to date snowfall 0.0 0.2  
Since 1 July snowfall 0.0 0.2  
Since 1 September snowfall 0.0 0.2  
Snow Depth 0.00 in    
Sea Level Pressure  
Sea Level Pressure 30.36 in    
Wind  
Wind Speed 10 mph (West)    
Max Wind Speed 23 mph    
Max Gust Speed 29 mph    
Visibility 10 miles    
Events      
T = Trace of Precipitation, MM = Missing Value Source: NWS Daily Summary

Daily Weather History Graph

Daily Weather History Graph

Search for Another Location

Airport:

Trip Planner

Search our weather history database for the weather conditions in past years. The results will help you decide how hot, cold, wet, or windy it might be!

Date:

Astronomy

Nov. 12, 2012 Rise Set
Actual Time 6:48 AM CST 4:57 PM CST
Civil Twilight 6:20 AM CST 5:25 PM CST
Nautical Twilight 5:48 AM CST 5:57 PM CST
Astronomical Twilight 5:16 AM CST 6:28 PM CST
Moon 5:14 AM CST (11/12) 4:02 PM CST (11/12)
Length of Visible Light 11h 05m
Length of Day
10h 08m
Waning Crescent, 2% of the Moon is Illuminated
Nov 12
Waning Crescent
Nov 13
New
Nov 20
First Quarter
Nov 28
Full
Dec 6
Last Quarter

Hourly Weather History & Observations

Time (CST) Temp. Windchill Dew Point Humidity Pressure Visibility Wind Dir Wind Speed Gust Speed Precip Events Conditions
12:54 AM 30.0 °F 23.2 °F 19.9 °F 66% 30.21 in 10.0 mi NW 6.9 mph - N/A   Clear
1:54 AM 28.0 °F 22.8 °F 19.9 °F 72% 30.25 in 10.0 mi West 4.6 mph - N/A   Clear
2:54 AM 27.0 °F 19.5 °F 21.0 °F 78% 30.26 in 10.0 mi West 6.9 mph - N/A   Clear
3:54 AM 27.0 °F 19.5 °F 19.0 °F 72% 30.27 in 10.0 mi West 6.9 mph - N/A   Clear
4:54 AM 27.0 °F 18.0 °F 19.0 °F 72% 30.30 in 10.0 mi West 9.2 mph - N/A   Clear
5:54 AM 26.1 °F 17.6 °F 19.9 °F 78% 30.31 in 10.0 mi West 8.1 mph - N/A   Clear
6:54 AM 26.1 °F 18.4 °F 19.9 °F 78% 30.34 in 10.0 mi West 6.9 mph - N/A   Clear
7:54 AM 28.0 °F 19.3 °F 21.0 °F 75% 30.36 in 10.0 mi WSW 9.2 mph - N/A   Clear
8:54 AM 32.0 °F 24.8 °F 21.0 °F 64% 30.37 in 10.0 mi WSW 8.1 mph - N/A   Clear
9:54 AM 37.0 °F 28.1 °F 21.0 °F 52% 30.38 in 10.0 mi WSW 15.0 mph 19.6 mph N/A   Clear
10:54 AM 39.0 °F 30.3 °F 24.1 °F 55% 30.38 in 10.0 mi WSW 16.1 mph - N/A   Clear
11:54 AM 42.1 °F 34.9 °F 23.0 °F 47% 30.36 in 10.0 mi West 13.8 mph 21.9 mph N/A   Clear
12:54 PM 43.0 °F 34.5 °F 21.0 °F 42% 30.33 in 10.0 mi West 19.6 mph 27.6 mph N/A   Clear
1:54 PM 44.1 °F 36.5 °F 21.0 °F 40% 30.33 in 10.0 mi West 17.3 mph - N/A   Clear
2:54 PM 44.1 °F 36.8 °F 21.9 °F 42% 30.35 in 10.0 mi West 16.1 mph 26.5 mph N/A   Clear
3:54 PM 43.0 °F 35.7 °F 21.0 °F 42% 30.36 in 10.0 mi West 15.0 mph 23.0 mph N/A   Clear
4:54 PM 41.0 °F 35.8 °F 21.0 °F 45% 30.38 in 10.0 mi West 8.1 mph - N/A   Clear
5:54 PM 37.0 °F 31.0 °F 21.9 °F 54% 30.40 in 10.0 mi WSW 8.1 mph - N/A   Clear
6:54 PM 36.0 °F 30.3 °F 21.9 °F 57% 30.41 in 10.0 mi West 6.9 mph - N/A   Clear
7:54 PM 36.0 °F 31.1 °F 21.9 °F 57% 30.43 in 10.0 mi WSW 5.8 mph - N/A   Clear
8:54 PM 35.1 °F 30.1 °F 23.0 °F 61% 30.44 in 10.0 mi WSW 5.8 mph - N/A   Clear
9:54 PM 34.0 °F 28.8 °F 21.0 °F 59% 30.44 in 10.0 mi WSW 5.8 mph - N/A   Clear
10:54 PM 34.0 °F 28.8 °F 21.0 °F 59% 30.45 in 10.0 mi WSW 5.8 mph - N/A   Clear
11:54 PM 35.1 °F 32.2 °F 21.0 °F 57% 30.45 in 10.0 mi West 3.5 mph - N/A   Clear